Regional Weather Roundup
Issued by NWS

Home | Current Version | Previous Version | Text Only | Print | Product List | Glossary Off
Versions: 1 2 3 4 5 6 7 8 9 10 11 12 13 14 15 16 17 18 19 20 21 22 23 24 25 26 27 28 29 30 31 32 33 34 35 36 37 38 39 40 41 42 43 44 45 46 47 48 49 50

000
ASUS43 KMPX 211710
RWRMN
WEATHER ROUNDUP FOR MINNESOTA
NATIONAL WEATHER SERVICE TWIN CITIES/CHANHASSEN MN
1200 PM CDT SAT OCT 21 2017


NOTE: "FAIR" INDICATES FEW OR NO CLOUDS BELOW 12,000 FEET WITH NO
SIGNIFICANT WEATHER AND/OR OBSTRUCTIONS TO VISIBILITY. N/A MEANS
CURRENT SKY AND/OR WEATHER CONDITIONS ARE NOT AVAILABLE.

MNZ060>063-068>070-211800-
   Twin Cities Metro

CITY           SKY/WX    TMP DP  RH WIND       PRES   REMARKS
TWIN CITIES    CLOUDY    63  60  90 S17G25    29.68F
ST PAUL        CLOUDY    62  60  93 SE15      29.70S
CRYSTAL        CLOUDY    62  56  80 SE12G22   29.66S
BLAINE         CLOUDY    63  61  94 SE16G23   29.67S
LAKEVILLE      CLOUDY    61  61 100 S15       29.69S
EDEN PRAIRIE   CLOUDY    64  60  87 S16G24    29.65F
SOUTH ST PAUL  CLOUDY    61  61 100 S20G30    29.69F
LAKE ELMO      CLOUDY    61  59  94 S16G24    29.71F
$$
MNZ001>005-007-008-013>017-022>024-027-028-211800-
   Northwest Minnesota

CITY           SKY/WX    TMP DP  RH WIND       PRES   REMARKS
BEMIDJI        CLOUDY    62  56  81 S14       29.53R
HALLOCK        SUNNY     63  39  42 SW16      29.42R
ROSEAU         CLOUDY    66  59  77 S17G24    29.43S
WARROAD        CLOUDY    66  61  82 S14G20    29.45R
THIEF RVR FALL LGT RAIN  59  53  80 SW14      29.48R
CROOKSTON      CLOUDY    63  41  45 W12       29.47S
FOSSTON        CLOUDY    63  55  77 S16G24    29.49S
DETROIT LAKES  CLOUDY    63  57  82 S7        29.52S
MOORHEAD       CLOUDY    61  39  44 W12       29.51S
PARK RAPIDS    CLOUDY    63  57  81 S14G26    29.53F
MAHNOMEN       CLOUDY    61  58  89 S13G18    29.49S
$$
MNZ006-009>011-018-025>026-211800-
   North Central Minnesota

CITY           SKY/WX    TMP DP  RH WIND       PRES   REMARKS
BAUDETTE       CLOUDY    65  57  75 S16G25    29.48R
FLAG ISLAND    CLOUDY    55  52  88 SE17      29.44S
INTL FALLS     CLOUDY    65  54  67 S8G18     29.54F
WASKISH        CLOUDY    64  57  77 S13       29.52R
BIG FORK       CLOUDY    63  55  77 S15G25    29.57S
LONGVILLE      CLOUDY    61  57  88 S16G23    29.57F
GRAND RAPIDS   CLOUDY    58  56  93 S14       29.62F
CRANE LAKE     CLOUDY    63  54  72 S13G21    29.62S
ORR            CLOUDY    63  52  67 S13G20    29.58F
COOK           DRIZZLE   59  55  88 SE13G24   29.62F
WALKER         CLOUDY    61  55  81 S15       29.54F
$$
MNZ012-019>021-037-211800-
   Northeast Minnesota

CITY           SKY/WX    TMP DP  RH WIND       PRES   REMARKS
DULUTH         LGT RAIN  57  57 100 S15       29.68F
ELY            CLOUDY    61  52  72 S15       29.66F
HIBBING        LGT RAIN  57  56  96 S10       29.64F
EVELETH        LGT RAIN  58  57  99 S9        29.66F
DULUTH HARBOR  LGT RAIN  59  57  94 S18       29.68F
TWO HARBORS    CLOUDY    63  57  82 S7        29.68F
SILVER BAY     CLOUDY    61  57  88 S9        29.68F
GRAND MARAIS     N/A     60  52  74 CALM      29.74F
G MARAIS ARPRT CLOUDY    57  48  72 S8G22     29.76F
$$
MNZ029>031-032-039>041-046>048-054>057-064-211800-
   West Central Minnesota

CITY           SKY/WX    TMP DP  RH WIND       PRES   REMARKS
FERGUS FALLS   CLOUDY    64  59  82 S12G17    29.50S
WHEATON        CLOUDY    61  45  55 W14G20    29.53R
MORRIS         PTSUNNY   66  61  82 S10       29.50F
ALEXANDRIA     CLOUDY    65  59  81 S16       29.56S
ELBOW LAKE     CLOUDY    63  59  88 SE10      29.52S
WADENA         CLOUDY    63  55  77 S13G21    29.54S
GLENWOOD       CLOUDY    64  61  88 S13G20    29.56S
APPLETON       PTSUNNY   72  61  68 S13G22    29.50F
BENSON         PTSUNNY   70  61  73 S15       29.53F
ORTONVILLE     CLOUDY    68  61  77 N8        29.50S
MADISON        PTSUNNY   73  63  68 S18G26    29.50S
WILLMAR        PTSUNNY   68  63  83 S14G22    29.57S
$$
MNZ033>034-036-042>043-049>051-058-059-211800-
   Central Minnesota

CITY           SKY/WX    TMP DP  RH WIND       PRES   REMARKS
ST CLOUD       CLOUDY    61  60  97 S16       29.61F
SAUK CENTRE    CLOUDY    62  59  88 SE15      29.57F
PAYNESVILLE    CLOUDY    64  60  88 S15G23    29.59S
AITKIN         RAIN      55  54  94 S12G21    29.61S
PINE RIVER     CLOUDY    57  54  88 SE14G20   29.61F
BRAINERD       LGT RAIN  60  57  89 S15G23    29.60S FOG
STAPLES        CLOUDY    61  55  82 S18G25    29.57S
LONG PRAIRIE   DRIZZLE   61  57  88 SE12      29.58S
LITTLE FALLS   CLOUDY    61  55  82 SE13      29.60F
LITCHFIELD     CLOUDY    64  63  94 SE7G17    29.60F
BUFFALO        CLOUDY    62  58  85 SE15G21   29.65S
MAPLE LAKE     CLOUDY    63  61  93 S9G17     29.64S
HUTCHINSON     CLOUDY    65  62  90 S16G22    29.62F
$$
MNZ037-044-045-052-053-211800-
   East Central Minnesota

CITY           SKY/WX    TMP DP  RH WIND       PRES   REMARKS
PRINCETON      CLOUDY    63  61  94 SE14G21   29.64F
MORA           LGT RAIN  55  54  94 S10       29.67S
CAMBRIDGE      CLOUDY    63  63 100 SE13G18   29.66S
RUSH CITY      CLOUDY    60  57  92 S14G25    29.68S
MOOSE LAKE     HVY RAIN  59  55  88 S8G16     29.65F
HINCKLEY       LGT RAIN  59  59 100 SE9       29.67F
CLOQUET        RAIN      59  55  88 S10G16    29.67F
MCGREGOR       CLOUDY    59  55  88 S13G20    29.64S
$$
MNZ071>073-080-081-089-090-097-098-211800-
   Southwest Minnesota

CITY           SKY/WX    TMP DP  RH WIND       PRES   REMARKS
MONTEVIDEO     CLOUDY    72  63  73 SW18G28   29.52F
GRANITE FALLS  CLOUDY    73  64  71 S24G31    29.55F
CANBY          MOSUNNY   73  62  68 S17G32    29.53R
MARSHALL       PTSUNNY   71  62  73 S23G31    29.54R
REDWOOD FALLS  CLOUDY    70  60  70 S24G31    29.57S
OLIVIA         CLOUDY    70  63  78 S14G24    29.57S
PIPESTONE      MOSUNNY   70  61  73 S17G30    29.55F
WORTHINGTON    CLOUDY    66  61  84 S10G21    29.61S
JACKSON        CLOUDY    63  59  88 S17G24    29.65S
TRACY          CLOUDY    70  64  81 S15G21    29.57S
SLAYTON        CLOUDY    69  62  78 S20G29    29.59R
$$
MNZ065>067-074>077-082>085-091>093-211800-
   South Central Minnesota

CITY           SKY/WX    TMP DP  RH WIND       PRES   REMARKS
NEW ULM        CLOUDY    64  61  88 S20G29    29.62F
ST JAMES       PTSUNNY   66  61  82 S23G31    29.64S
FAIRMONT       CLOUDY    63  61  94 S22G28    29.66S
GLENCOE        CLOUDY    64  65 100 S14G22    29.63S
FARIBAULT      CLOUDY    63  61  94 S18G25    29.70F
OWATONNA       PTSUNNY   63  61  94 S21G26    29.72S
WASECA         CLOUDY    63  59  88 S15G28    29.72S
$$
MNZ078>079-086>088-094>096-211800-
   Southeast Minnesota

CITY           SKY/WX    TMP DP  RH WIND       PRES   REMARKS
ROCHESTER      CLOUDY    63  58  83 S23G33    29.78F
RED WING       CLOUDY    64  55  72 S16G22    29.72F
STANTON        CLOUDY    64  59  85 S15G28    29.70S
DODGE CENTER   CLOUDY    63  57  82 S26G32    29.75F
WINONA         PTSUNNY   70  57  64 S10G21    29.82R
AUSTIN         CLOUDY    61  57  88 S13G23    29.76F FOG
PRESTON        CLOUDY    62  56  80 S18       29.82R
$$
ABBREVIATIONS USED IN REMARKS
   TC - TEMPERATURES IN CELSIUS
  WCI - WIND CHILL INDEX
   HX - HEAT INDEX
  VSB - VISIBILITY
$$




USA.gov is the U.S. government's official web portal to all federal, state and local government web resources and services.